Location: Pace/Milton
(30.6162°N, 87.1503°W)
Time: 10:57:49
(UTC-06:00)

N. Korean satellite - Pass Details

Date: 04 December 2021
Orbit: 447 x 491 km, 97.3° (Epoch: 21 January)

Event Time Altitude Azimuth Distance (km) Brightness Sun altitude
Rises 17:11:46 0° 202° (SSW) 2,539 11.0 -5.7°
Reaches altitude 10° 17:14:27 10° 225° (SW) 1,655 10.6 -6.2°
Maximum altitude 17:16:43 16° 264° (W) 1,319 10.1 -6.7°
Drops below altitude 10° 17:18:58 10° 304° (NW) 1,645 9.8 -7.1°
Sets 17:21:38 0° 327° (NNW) 2,516 10.4 -7.7°
